FW4102 Weather Reports


Display with metric or nautical units.
time (UTC)temp
F
wind
direction
speed
MPH
gust
MPH
rain 1hr
in
rain 24hr
in
rain mn
in
humidity
%
barometer
mb
20260509001542 55 207 1.0 4.0 0.00 0.03 0.02 71 1029.5
20260509000036 54 0 0.0 4.0 0.00 0.03 0.02 70 1029.5
20260508234538 54 205 0.0 2.0 0.00 0.03 0.02 70 1029.6
20260508233037 54 0 0.0 2.0 0.00 0.03 0.02 70 1029.5
20260508231537 54 0 0.0 4.0 0.00 0.03 0.02 70 1029.5
20260508230049 53 0 0.0 1.0 0.00 0.03 0.02 70 1029.3
20260508224537 53 205 0.0 2.0 0.00 0.03 0.02 70 1029.2
20260508223038 53 0 0.0 2.0 0.01 0.03 0.02 70 1029.1
20260508221537 52 0 0.0 0.0 0.00 0.03 0.01 69 1029.1
20260508220041 52 0 0.0 0.0 0.00 0.03 0.01 69 1029.0
20260508214537 52 0 0.0 1.0 0.00 0.03 0.01 69 1028.9
20260508213033 52 0 0.0 2.0 0.00 0.02 0.00 69 1028.8
20260508211536 52 0 0.0 0.0 0.00 0.02 0.00 69 1028.6
20260508210042 52 0 0.0 0.0 0.00 0.02 0.00 69 1028.6
20260508204537 52 0 0.0 0.0 0.00 0.02 0.00 69 1028.6
20260508203037 52 0 0.0 0.0 0.00 0.02 0.00 69 1028.4
20260508201537 52 0 0.0 1.0 0.00 0.02 0.00 69 1028.2
20260508200045 52 0 0.0 2.0 0.00 0.02 0.00 68 1028.0
20260508194535 52 0 0.0 3.0 0.00 0.01 0.00 68 1027.9
20260508193042 52 0 0.0 2.0 0.00 0.01 0.00 68 1027.9
20260508191538 52 0 0.0 0.0 0.00 0.01 0.00 68 1027.8
20260508190048 52 0 0.0 0.0 0.00 0.01 0.00 68 1027.8
20260508184555 52 0 0.0 0.0 0.00 0.01 0.00 67 1027.7
20260508183037 52 0 0.0 0.0 0.00 0.01 0.00 67 1027.8
20260508181550 52 0 0.0 2.0 0.00 0.01 0.00 67 1027.9
20260508180036 52 0 0.0 0.0 0.00 0.01 0.00 67 1028.0
20260508174537 52 0 0.0 0.0 0.00 0.01 0.00 67 1028.2
20260508173038 52 0 0.0 0.0 0.00 0.01 0.00 67 1028.3
20260508171536 52 0 0.0 0.0 0.00 0.01 0.00 67 1028.3
20260508170040 51 0 0.0 0.0 0.00 0.01 0.00 67 1028.2
20260508164545 51 0 0.0 0.0 0.00 0.01 0.00 66 1028.2
20260508163037 51 0 0.0 0.0 0.00 0.01 0.00 66 1028.1
20260508161543 51 0 0.0 0.0 0.00 0.01 0.00 66 1028.2
20260508160037 51 0 0.0 0.0 0.00 0.01 0.00 66 1028.4
20260508154541 51 0 0.0 0.0 0.00 0.01 0.00 66 1028.3
20260508153037 51 0 0.0 0.0 0.00 0.01 0.00 66 1028.5
20260508151535 51 0 0.0 0.0 0.00 0.01 0.00 66 1028.6
20260508150037 51 0 0.0 0.0 0.00 0.01 0.00 66 1028.6
20260508144546 52 0 0.0 0.0 0.00 0.01 0.00 65 1028.7
20260508143041 51 0 0.0 0.0 0.00 0.01 0.00 65 1028.7
20260508141542 51 0 0.0 0.0 0.00 0.01 0.01 65 1028.8
20260508140044 51 0 0.0 0.0 0.00 0.01 0.01 65 1028.8
20260508134540 51 0 0.0 2.0 0.00 0.01 0.01 65 1029.0
20260508133104 52 205 0.0 2.0 0.00 0.01 0.01 65 1029.1
20260508131534 52 0 0.0 4.0 0.00 0.01 0.01 65 1029.3
20260508130040 52 0 0.0 0.0 0.00 0.01 0.01 65 1029.4
20260508124539 52 0 0.0 0.0 0.00 0.01 0.01 65 1029.5
20260508123039 52 0 0.0 0.0 0.00 0.01 0.01 65 1029.5
20260508121538 52 0 0.0 4.0 0.00 0.01 0.01 65 1029.4
20260508120037 52 0 0.0 2.0 0.00 0.01 0.01 65 1029.4
20260508114533 52 0 0.0 3.0 0.00 0.01 0.01 64 1029.5
20260508113050 52 0 0.0 3.0 0.00 0.01 0.01 64 1029.3
20260508111543 52 0 0.0 2.0 0.00 0.01 0.01 64 1029.3
20260508110048 52 0 0.0 4.0 0.00 0.01 0.01 64 1029.4
20260508104539 52 0 1.0 4.0 0.00 0.01 0.01 64 1029.2
20260508103035 52 207 1.0 6.0 0.00 0.01 0.01 64 1029.2
20260508101538 52 0 0.0 3.0 0.00 0.01 0.01 64 1029.3
20260508100037 52 0 0.0 4.0 0.00 0.01 0.01 64 1029.2
20260508094537 53 0 0.0 3.0 0.00 0.01 0.01 64 1029.3
20260508093038 53 207 0.0 2.0 0.00 0.01 0.01 63 1029.1
20260508091542 53 0 0.0 4.0 0.00 0.01 0.01 63 1028.9
20260508090057 53 0 0.0 4.0 0.00 0.01 0.01 62 1028.9
20260508084538 53 209 2.0 6.0 0.00 0.01 0.01 62 1028.9
20260508083040 54 0 0.0 3.0 0.00 0.01 0.01 61 1028.8
20260508081536 54 209 0.0 5.0 0.00 0.01 0.01 61 1028.7
20260508080035 55 0 0.0 3.0 0.00 0.01 0.01 61 1028.6
20260508074542 55 209 1.0 6.0 0.00 0.01 0.01 61 1028.5
20260508073037 56 216 2.0 5.0 0.00 0.01 0.01 61 1028.4
20260508071547 56 216 1.0 6.0 0.00 0.01 0.01 61 1028.4
20260508070040 57 220 2.0 6.0 0.00 0.01 0.01 61 1028.4
20260508064539 57 234 1.0 7.0 0.00 0.01 0.01 61 1028.4
20260508063035 57 244 1.0 7.0 0.00 0.01 0.01 62 1028.3
20260508061538 57 232 2.0 6.0 0.00 0.01 0.01 62 1028.3
20260508060037 57 247 1.0 7.0 0.00 0.01 0.01 63 1028.2
20260508054539 57 203 2.0 6.0 0.00 0.01 0.01 63 1028.3
20260508053058 57 199 2.0 7.0 0.00 0.01 0.01 62 1028.4
20260508051541 58 196 1.0 7.0 0.00 0.01 0.01 61 1028.3
20260508050039 58 197 1.0 6.0 0.00 0.01 0.01 60 1028.3
20260508044537 58 207 1.0 7.0 0.00 0.01 0.01 61 1028.4
20260508043041 58 198 2.0 7.0 0.00 0.01 0.01 59 1028.4
20260508041604 58 198 2.0 4.0 0.00 0.01 0.01 59 1028.4
20260508040046 58 185 2.0 8.0 0.00 0.01 0.01 59 1028.5
20260508034537 56 190 2.0 7.0 0.01 0.01 0.01 63 1028.7
20260508033038 56 192 2.0 6.0 0.01 0.01 0.01 63 1028.8
20260508031539 56 192 1.0 5.0 0.01 0.01 0.01 64 1028.9
20260508030036 56 211 2.0 9.0 0.01 0.01 0.01 64 1029.2
20260508024541 57 223 1.0 6.0 0.00 0.00 0.00 64 1029.3
20260508023037 56 211 2.0 8.0 0.00 0.00 0.00 64 1029.3
20260508021539 56 227 2.0 6.0 0.00 0.00 0.00 64 1029.5
20260508020044 56 226 0.0 6.0 0.00 0.00 0.00 63 1029.7
20260508014537 56 0 2.0 7.0 0.00 0.00 0.00 63 1029.8
20260508013035 55 0 1.0 7.0 0.00 0.00 0.00 64 1030.1
20260508011549 55 210 1.0 6.0 0.00 0.00 0.00 64 1030.1
20260508010038 55 194 3.0 8.0 0.00 0.00 0.00 63 1030.1
20260508004537 55 205 2.0 6.0 0.00 0.00 0.00 63 1030.0
20260508003039 55 203 1.0 8.0 0.00 0.00 0.00 63 1029.9